contact:dominique.lefevre@mio.osupytheas.fr, maurice.libes@osupytheas.fr, didier.mallarino@osupytheas.fr
Project:EMSO http://www.emso-fr.org/EMSO-France
Depth: 2436.0 m
Title:EMSO Ligure Ouest : Data MII capteur AQUADOPP
Date,Latitude,Longitude,X_East,Y_North,Z_Up,Amplitude_X,Amplitude_Y,Amplitude_Z,Batterie,SoundSpeed,Heading,Pitch,Roll,Pressure,TIS,Speed,Direction
, degrees North, degrees East, m.s-1, m.s-1,m.s-1, 1, 1, 1, Volt, m.s-1, degree, degree, degree, dbar, degree_C, m.s-1, degree
2023-08-28T00:04:03,42.805,6.029,0.008,0.021,0.008,104.0,103.0,101.0,13.4,1505.2,326.5,-0.8,1.8,2471.505,13.29,0.022,20.9
2023-08-28T00:07:03,42.805,6.029,0.013,0.027,0.01,103.0,104.0,101.0,13.3,1505.2,329.5,-0.8,1.8,2471.502,13.29,0.029,25.7
2023-08-28T00:10:03,42.805,6.029,0.01,0.006,-0.012,104.0,103.0,101.0,13.4,1505.2,345.7,-0.8,1.8,2471.476,13.29,0.011,59.0
2023-08-28T00:13:03,42.805,6.029,0.009,0.019,0.006,104.0,102.0,101.0,13.3,1505.2,322.5,-0.7,1.8,2471.469,13.29,0.021,25.3
2023-08-28T00:16:03,42.805,6.029,0.005,0.039,0.004,104.0,102.0,102.0,13.3,1505.2,341.5,-0.7,1.9,2471.474,13.29,0.039,7.3
2023-08-28T00:19:03,42.805,6.029,-0.003,0.0,-0.025,104.0,103.0,102.0,13.3,1505.2,348.4,-0.7,1.8,2471.466,13.29,0.003,270.0
2023-08-28T00:22:03,42.805,6.029,-0.003,0.011,-0.025,102.0,102.0,103.0,13.3,1505.2,325.2,-0.8,1.8,2471.443,13.29,0.011,344.7
2023-08-28T00:25:03,42.805,6.029,-0.008,-0.002,-0.022,103.0,105.0,101.0,13.3,1505.2,342.2,-0.7,1.8,2471.424,13.29,0.008,256.0
2023-08-28T00:28:03,42.805,6.029,-0.005,0.006,-0.01,103.0,102.0,101.0,13.4,1505.2,331.3,-0.8,1.8,2471.454,13.29,0.007,320.2
2023-08-28T00:31:03,42.805,6.029,0.012,0.025,0.003,103.0,104.0,101.0,13.4,1505.2,332.4,-0.7,1.8,2471.452,13.29,0.027,25.6
2023-08-28T00:34:03,42.805,6.029,0.008,0.027,0.01,102.0,104.0,103.0,13.4,1505.2,331.2,-0.8,1.8,2471.43,13.29,0.028,16.5
2023-08-28T00:37:03,42.805,6.029,0.021,-0.014,0.009,103.0,104.0,101.0,13.4,1505.2,353.1,-0.7,1.8,2471.453,13.29,0.025,123.7
2023-08-28T00:40:03,42.805,6.029,0.025,-0.011,-0.027,102.0,104.0,102.0,13.4,1505.2,333.4,-0.8,1.8,2471.437,13.29,0.027,113.7
2023-08-28T00:43:03,42.805,6.029,-0.001,0.017,0.013,103.0,103.0,102.0,13.4,1505.2,340.5,-0.8,1.8,2471.457,13.29,0.017,356.6
2023-08-28T00:46:03,42.805,6.029,0.013,0.01,-0.022,103.0,104.0,102.0,13.3,1505.2,348.9,-0.8,1.8,2471.429,13.29,0.016,52.4
2023-08-28T00:49:03,42.805,6.029,-0.025,0.01,-0.039,103.0,104.0,103.0,13.3,1505.2,323.4,-0.8,1.8,2471.449,13.29,0.026,291.8
2023-08-28T00:52:03,42.805,6.029,-0.026,0.044,-0.025,104.0,103.0,102.0,13.3,1505.2,345.6,-0.8,1.8,2471.415,13.29,0.051,329.4
2023-08-28T00:55:03,42.805,6.029,0.004,0.012,0.008,103.0,103.0,102.0,13.3,1505.2,345.4,-0.7,1.8,2471.451,13.29,0.012,18.4
2023-08-28T00:58:03,42.805,6.029,0.004,0.026,0.01,104.0,103.0,102.0,13.4,1505.2,328.5,-0.8,1.8,2471.44,13.29,0.026,8.7
2023-08-28T01:04:03,42.805,6.029,-0.004,-0.008,-0.017,104.0,104.0,103.0,13.4,1505.2,353.0,-0.8,1.9,2471.511,13.29,0.008,206.6
2023-08-28T01:07:03,42.805,6.029,0.013,0.012,0.012,104.0,104.0,103.0,13.4,1505.2,332.9,-0.8,1.8,2471.471,13.29,0.017,47.3
2023-08-28T01:10:03,42.805,6.029,-0.013,0.03,-0.009,104.0,104.0,101.0,13.3,1505.2,335.5,-0.8,1.8,2471.505,13.29,0.032,336.6
2023-08-28T01:13:03,42.805,6.029,0.021,0.028,0.009,103.0,105.0,103.0,13.4,1505.2,347.2,-0.8,1.8,2471.471,13.29,0.035,36.9
2023-08-28T01:16:03,42.805,6.029,0.005,0.028,0.025,104.0,105.0,101.0,13.3,1505.2,345.2,-0.7,1.9,2471.506,13.29,0.028,10.1
2023-08-28T01:19:03,42.805,6.029,0.007,0.01,-0.007,104.0,103.0,102.0,13.3,1505.2,327.0,-0.7,1.8,2471.474,13.29,0.012,35.0
2023-08-28T01:22:03,42.805,6.029,0.006,0.03,-0.015,103.0,104.0,102.0,13.4,1505.2,331.2,-0.8,1.8,2471.486,13.29,0.03,11.3
2023-08-28T01:25:03,42.805,6.029,0.014,0.005,0.005,104.0,104.0,101.0,13.3,1505.2,331.2,-0.8,1.8,2471.459,13.29,0.014,70.4
2023-08-28T01:28:03,42.805,6.029,0.018,0.012,-0.007,103.0,104.0,102.0,13.4,1505.2,349.3,-0.8,1.8,2471.468,13.29,0.021,56.3
2023-08-28T01:31:03,42.805,6.029,-0.001,0.019,0.037,104.0,104.0,101.0,13.3,1505.2,347.7,-0.8,1.8,2471.45,13.29,0.019,357.0
2023-08-28T01:34:03,42.805,6.029,0.0,0.006,-0.008,104.0,104.0,102.0,13.4,1505.2,350.0,-0.8,1.8,2471.482,13.29,0.006,0.0
2023-08-28T01:37:03,42.805,6.029,-0.007,0.023,0.007,103.0,105.0,100.0,13.3,1505.2,335.9,-0.8,1.8,2471.485,13.29,0.024,343.1
2023-08-28T01:40:03,42.805,6.029,0.027,0.021,-0.024,102.0,105.0,103.0,13.4,1505.2,333.9,-0.8,1.8,2471.452,13.29,0.034,52.1
2023-08-28T01:43:03,42.805,6.029,0.018,0.016,0.008,102.0,104.0,101.0,13.4,1505.2,331.8,-0.7,1.8,2471.448,13.29,0.024,48.4
2023-08-28T01:46:03,42.805,6.029,0.019,0.015,-0.004,106.0,104.0,101.0,13.4,1505.2,349.3,-0.8,1.8,2471.43,13.29,0.024,51.7
2023-08-28T01:49:03,42.805,6.029,0.025,0.015,0.004,103.0,104.0,102.0,13.3,1505.2,340.6,-0.8,1.8,2471.467,13.29,0.029,59.0
2023-08-28T01:52:03,42.805,6.029,0.001,0.014,0.001,104.0,104.0,103.0,13.4,1505.2,330.5,-0.8,1.8,2471.5,13.29,0.014,4.1
2023-08-28T01:55:03,42.805,6.029,-0.007,0.023,-0.013,105.0,103.0,103.0,13.4,1505.2,329.2,-0.8,1.8,2471.442,13.29,0.024,343.1
2023-08-28T01:58:03,42.805,6.029,0.004,0.03,0.015,103.0,104.0,102.0,13.3,1505.2,346.5,-0.7,1.8,2471.477,13.29,0.03,7.6
2023-08-28T02:04:03,42.805,6.029,0.001,0.044,-0.001,105.0,102.0,102.0,13.4,1505.2,336.6,-0.8,1.8,2471.535,13.29,0.044,1.3
2023-08-28T02:07:03,42.805,6.029,-0.001,0.018,-0.007,104.0,104.0,101.0,13.4,1505.2,335.0,-0.8,1.8,2471.516,13.29,0.018,356.8
2023-08-28T02:10:03,42.805,6.029,0.006,0.015,-0.006,103.0,103.0,103.0,13.3,1505.2,324.7,-0.8,1.8,2471.486,13.29,0.016,21.8
2023-08-28T02:13:03,42.805,6.029,0.023,0.017,-0.016,103.0,104.0,103.0,13.3,1505.2,331.6,-0.8,1.8,2471.517,13.29,0.028,53.5
2023-08-28T02:16:03,42.805,6.029,0.004,0.011,0.017,104.0,105.0,102.0,13.3,1505.2,349.7,-0.8,1.8,2471.5,13.29,0.011,20.0
2023-08-28T02:19:03,42.805,6.029,0.025,0.008,-0.008,102.0,104.0,103.0,13.4,1505.2,328.5,-0.8,1.8,2471.503,13.29,0.026,72.3
2023-08-28T02:22:03,42.805,6.029,0.01,0.011,0.014,103.0,104.0,102.0,13.4,1505.2,345.4,-0.8,1.8,2471.476,13.29,0.014,42.3
2023-08-28T02:25:03,42.805,6.029,0.0,0.014,-0.011,104.0,104.0,102.0,13.3,1505.2,347.0,-0.8,1.8,2471.468,13.29,0.014,0.0
2023-08-28T02:28:03,42.805,6.029,0.012,0.022,-0.005,104.0,104.0,102.0,13.3,1505.2,342.3,-0.8,1.8,2471.483,13.29,0.025,28.6
2023-08-28T02:31:03,42.805,6.029,-0.001,0.033,-0.015,104.0,103.0,101.0,13.4,1505.2,325.5,-0.8,1.8,2471.469,13.29,0.033,358.3
2023-08-28T02:34:03,42.805,6.029,-0.011,0.017,-0.005,105.0,103.0,104.0,13.3,1505.2,326.5,-0.8,1.8,2471.487,13.29,0.02,327.1
2023-08-28T02:37:03,42.805,6.029,0.024,0.023,-0.014,102.0,103.0,103.0,13.4,1505.2,324.0,-0.7,1.8,2471.462,13.29,0.033,46.2
2023-08-28T02:40:03,42.805,6.029,0.0,0.007,-0.016,103.0,104.0,102.0,13.4,1505.2,332.2,-0.8,1.8,2471.491,13.29,0.007,0.0
2023-08-28T02:43:03,42.805,6.029,0.002,0.004,0.019,105.0,103.0,100.0,13.4,1505.2,327.5,-0.7,1.8,2471.452,13.29,0.004,26.6
2023-08-28T02:52:03,42.805,6.029,-0.001,0.037,-0.006,102.0,103.0,103.0,13.4,1505.2,327.1,-0.8,1.8,2471.533,13.29,0.037,358.5
2023-08-28T02:55:03,42.805,6.029,0.008,0.003,-0.012,104.0,104.0,101.0,13.3,1505.2,330.2,-0.8,1.8,2471.523,13.29,0.008,69.4
2023-08-28T02:58:03,42.805,6.029,0.013,0.025,-0.01,103.0,103.0,101.0,13.4,1505.2,334.7,-0.8,1.8,2471.526,13.29,0.028,27.5
2023-08-28T03:04:03,42.805,6.029,0.024,0.01,0.0,104.0,104.0,102.0,13.4,1505.2,348.2,-0.8,1.8,2471.548,13.29,0.026,67.4
2023-08-28T03:07:03,42.805,6.029,0.032,0.023,0.0,104.0,103.0,102.0,13.3,1505.2,328.1,-0.8,1.8,2471.539,13.29,0.039,54.3
2023-08-28T03:10:03,42.805,6.029,0.024,0.0,-0.034,104.0,105.0,102.0,13.4,1505.2,342.7,-0.8,1.8,2471.52,13.29,0.024,90.0
2023-08-28T03:13:03,42.805,6.029,0.011,0.0,-0.009,102.0,106.0,102.0,13.3,1505.2,337.4,-0.8,1.8,2471.531,13.29,0.011,90.0
2023-08-28T03:16:03,42.805,6.029,0.001,0.018,0.005,103.0,106.0,102.0,13.3,1505.2,333.9,-0.8,1.8,2471.511,13.29,0.018,3.2
2023-08-28T03:19:03,42.805,6.029,0.029,0.022,0.014,104.0,104.0,102.0,13.4,1505.2,338.4,-0.8,1.8,2471.515,13.29,0.036,52.8
2023-08-28T03:22:03,42.805,6.029,0.025,0.005,-0.018,105.0,105.0,102.0,13.4,1505.2,338.2,-0.8,1.8,2471.481,13.29,0.025,78.7
2023-08-28T03:25:03,42.805,6.029,0.015,0.025,0.029,103.0,104.0,102.0,13.3,1505.2,334.2,-0.7,1.8,2471.51,13.29,0.029,31.0
2023-08-28T03:28:03,42.805,6.029,0.009,0.014,0.03,103.0,104.0,101.0,13.4,1505.2,332.9,-0.8,1.9,2471.482,13.29,0.016,32.7
2023-08-28T03:31:03,42.805,6.029,-0.001,0.029,-0.018,103.0,106.0,101.0,13.4,1505.2,344.3,-0.8,1.8,2471.519,13.29,0.029,358.0
2023-08-28T03:34:03,42.805,6.029,0.004,0.021,-0.005,105.0,105.0,102.0,13.3,1505.2,340.9,-0.7,1.8,2471.526,13.29,0.021,10.8
2023-08-28T03:37:03,42.805,6.029,0.021,0.017,-0.019,103.0,104.0,102.0,13.3,1505.2,344.2,-0.8,1.8,2471.507,13.29,0.027,51.0
2023-08-28T03:40:03,42.805,6.029,0.036,-0.003,0.002,104.0,104.0,102.0,13.4,1505.2,346.2,-0.8,1.8,2471.488,13.29,0.036,94.8
2023-08-28T03:43:03,42.805,6.029,0.014,0.016,0.008,104.0,104.0,102.0,13.4,1505.2,327.3,-0.8,1.8,2471.521,13.29,0.021,41.2
2023-08-28T03:46:03,42.805,6.029,0.01,0.017,-0.011,105.0,105.0,101.0,13.3,1505.2,327.7,-0.8,1.8,2471.531,13.29,0.019,30.5
2023-08-28T03:49:03,42.805,6.029,0.029,0.014,0.015,104.0,105.0,102.0,13.4,1505.2,321.1,-0.8,1.8,2471.49,13.29,0.032,64.2
2023-08-28T03:52:03,42.805,6.029,0.032,0.011,0.006,104.0,104.0,102.0,13.4,1505.2,347.0,-0.7,1.8,2471.49,13.29,0.033,71.0
2023-08-28T03:55:03,42.805,6.029,-0.01,0.024,-0.018,103.0,104.0,102.0,13.4,1505.2,343.6,-0.8,1.8,2471.522,13.29,0.026,337.4
2023-08-28T03:58:03,42.805,6.029,0.026,0.033,0.006,103.0,105.0,102.0,13.3,1505.2,322.2,-0.8,1.8,2471.522,13.29,0.042,38.2
2023-08-28T04:04:03,42.805,6.029,0.041,-0.008,-0.028,104.0,104.0,101.0,13.3,1505.2,344.2,-0.8,1.9,2471.548,13.29,0.041,101.0
2023-08-28T04:07:03,42.805,6.029,0.013,0.011,-0.01,104.0,104.0,102.0,13.4,1505.2,332.5,-0.8,1.8,2471.495,13.29,0.017,49.8
2023-08-28T04:10:03,42.805,6.029,0.007,0.004,-0.015,104.0,106.0,102.0,13.3,1505.2,336.8,-0.8,1.8,2471.502,13.29,0.008,60.3
2023-08-28T04:13:03,42.805,6.029,0.06,0.012,0.04,104.0,103.0,102.0,13.4,1505.2,329.0,-0.8,1.8,2471.53,13.29,0.061,78.7
2023-08-28T04:16:03,42.805,6.029,0.038,0.006,0.0,103.0,105.0,101.0,13.3,1505.2,348.9,-0.8,1.8,2471.521,13.29,0.038,81.0
2023-08-28T04:19:03,42.805,6.029,0.024,0.023,0.007,104.0,104.0,101.0,13.3,1505.2,325.4,-0.7,1.8,2471.498,13.29,0.033,46.2
2023-08-28T04:22:03,42.805,6.029,0.021,0.026,0.002,104.0,106.0,102.0,13.4,1505.2,340.4,-0.8,1.8,2471.478,13.29,0.033,38.9
2023-08-28T04:25:03,42.805,6.029,0.01,0.014,0.012,104.0,104.0,102.0,13.4,1505.2,330.6,-0.7,1.8,2471.452,13.29,0.017,35.5
2023-08-28T04:28:03,42.805,6.029,0.059,0.006,0.026,104.0,105.0,101.0,13.4,1505.2,340.8,-0.7,1.8,2471.503,13.29,0.059,84.2
2023-08-28T04:31:03,42.805,6.029,0.045,0.016,0.023,103.0,105.0,102.0,13.4,1505.2,352.1,-0.8,1.8,2471.462,13.29,0.047,70.4
2023-08-28T04:34:03,42.805,6.029,0.01,0.007,-0.025,104.0,104.0,101.0,13.3,1505.2,325.2,-0.8,1.8,2471.46,13.29,0.012,55.0
2023-08-28T04:37:03,42.805,6.029,0.011,0.009,-0.012,104.0,105.0,102.0,13.4,1505.2,337.5,-0.8,1.8,2471.494,13.29,0.014,50.7
2023-08-28T04:40:03,42.805,6.029,0.018,0.032,0.0,104.0,107.0,100.0,13.4,1505.2,333.4,-0.8,1.8,2471.474,13.29,0.036,29.4
2023-08-28T04:43:03,42.805,6.029,0.033,0.017,-0.013,103.0,105.0,102.0,13.4,1505.2,333.8,-0.7,1.8,2471.473,13.29,0.037,62.7
2023-08-28T04:46:03,42.805,6.029,-0.008,-0.014,-0.025,105.0,105.0,101.0,13.4,1505.2,325.8,-0.8,1.8,2471.467,13.29,0.016,209.7
2023-08-28T04:49:03,42.805,6.029,0.013,0.015,-0.016,104.0,106.0,102.0,13.3,1505.2,324.5,-0.7,1.8,2471.505,13.29,0.019,40.9
2023-08-28T04:52:03,42.805,6.029,0.03,0.003,0.002,103.0,105.0,102.0,13.3,1505.2,335.5,-0.8,1.8,2471.477,13.29,0.03,84.3
2023-08-28T04:55:03,42.805,6.029,0.037,-0.014,-0.006,105.0,105.0,103.0,13.4,1505.2,330.3,-0.8,1.8,2471.496,13.29,0.039,110.7
2023-08-28T04:58:03,42.805,6.029,0.014,-0.005,-0.008,104.0,105.0,102.0,13.4,1505.2,351.2,-0.8,1.8,2471.496,13.29,0.014,109.6
2023-08-28T05:04:03,42.805,6.029,0.015,0.011,-0.009,104.0,104.0,101.0,13.4,1505.2,346.8,-0.8,1.8,2471.526,13.28,0.018,53.7
2023-08-28T05:07:03,42.805,6.029,0.049,0.009,0.034,104.0,105.0,102.0,13.4,1505.2,330.6,-0.8,1.8,2471.541,13.28,0.049,79.6
2023-08-28T05:10:03,42.805,6.029,0.02,0.01,-0.014,104.0,105.0,102.0,13.4,1505.2,332.4,-0.7,1.8,2471.532,13.29,0.022,63.4
2023-08-28T05:13:03,42.805,6.029,0.038,0.012,0.0,104.0,105.0,101.0,13.3,1505.2,338.4,-0.8,1.8,2471.512,13.29,0.039,72.5
2023-08-28T05:16:03,42.805,6.029,0.038,-0.009,0.0,105.0,105.0,101.0,13.4,1505.2,339.1,-0.8,1.8,2471.517,13.29,0.039,103.3
2023-08-28T05:19:03,42.805,6.029,0.013,0.01,-0.022,105.0,106.0,101.0,13.4,1505.2,337.7,-0.8,1.8,2471.522,13.29,0.016,52.4
2023-08-28T05:22:03,42.805,6.029,0.015,0.009,0.006,104.0,104.0,102.0,13.3,1505.2,322.9,-0.8,1.8,2471.475,13.29,0.017,59.0
2023-08-28T05:25:03,42.805,6.029,0.033,0.0,-0.018,103.0,105.0,101.0,13.4,1505.2,342.6,-0.8,1.8,2471.509,13.29,0.033,90.0
2023-08-28T05:28:03,42.805,6.029,0.021,0.001,-0.017,104.0,105.0,101.0,13.3,1505.2,333.9,-0.7,1.8,2471.513,13.29,0.021,87.3
2023-08-28T05:31:03,42.805,6.029,0.016,0.009,0.0,104.0,104.0,101.0,13.3,1505.2,323.4,-0.8,1.8,2471.489,13.29,0.018,60.6
2023-08-28T05:34:03,42.805,6.029,0.012,-0.019,-0.031,104.0,105.0,102.0,13.3,1505.2,346.5,-0.8,1.8,2471.513,13.29,0.022,147.7
2023-08-28T05:37:03,42.805,6.029,0.037,-0.005,0.006,103.0,104.0,101.0,13.4,1505.2,350.9,-0.8,1.8,2471.491,13.29,0.037,97.7
2023-08-28T05:40:03,42.805,6.029,0.024,0.002,0.013,103.0,104.0,102.0,13.4,1505.2,345.4,-0.8,1.8,2471.453,13.29,0.024,85.2
2023-08-28T05:43:03,42.805,6.029,0.027,0.007,-0.001,104.0,104.0,102.0,13.3,1505.2,326.0,-0.8,1.8,2471.46,13.29,0.027,75.5
2023-08-28T05:46:03,42.805,6.029,0.022,-0.005,0.009,104.0,103.0,102.0,13.3,1505.2,330.6,-0.7,1.8,2471.509,13.29,0.022,102.8
2023-08-28T05:49:03,42.805,6.029,0.046,0.002,0.006,104.0,104.0,103.0,13.4,1505.2,338.0,-0.7,1.8,2471.474,13.29,0.046,87.5
2023-08-28T05:52:03,42.805,6.029,0.037,-0.001,-0.002,104.0,105.0,101.0,13.4,1505.2,344.8,-0.7,1.8,2471.443,13.29,0.037,91.5
2023-08-28T05:55:03,42.805,6.029,0.052,-0.009,-0.018,103.0,104.0,102.0,13.4,1505.2,327.1,-0.7,1.8,2471.455,13.29,0.052,99.8
2023-08-28T05:58:03,42.805,6.029,0.02,0.0,-0.017,104.0,104.0,101.0,13.4,1505.2,333.4,-0.7,1.8,2471.489,13.29,0.02,90.0
2023-08-28T06:04:03,42.805,6.029,0.048,0.006,0.003,104.0,103.0,101.0,13.4,1505.2,332.9,-0.8,1.8,2471.535,13.28,0.048,82.9
2023-08-28T06:07:03,42.805,6.029,0.045,-0.013,0.025,104.0,104.0,101.0,13.4,1505.2,353.5,-0.7,1.8,2471.544,13.28,0.046,106.1
2023-08-28T06:10:03,42.805,6.029,0.037,0.001,0.022,103.0,105.0,102.0,13.4,1505.2,343.4,-0.8,1.8,2471.537,13.29,0.037,88.5
2023-08-28T06:13:03,42.805,6.029,0.026,0.004,-0.013,103.0,104.0,102.0,13.3,1505.2,353.6,-0.7,1.8,2471.501,13.29,0.026,81.3
2023-08-28T06:16:03,42.805,6.029,0.049,-0.002,-0.011,105.0,103.0,101.0,13.3,1505.2,328.2,-0.8,1.8,2471.535,13.29,0.049,92.3
2023-08-28T06:19:03,42.805,6.029,0.023,0.009,0.0,104.0,103.0,102.0,13.3,1505.2,331.2,-0.8,1.8,2471.527,13.29,0.024,68.6
2023-08-28T06:22:03,42.805,6.029,0.041,0.004,-0.014,102.0,103.0,102.0,13.3,1505.2,326.6,-0.8,1.8,2471.517,13.29,0.041,84.4
2023-08-28T06:25:03,42.805,6.029,0.033,0.007,0.017,103.0,102.0,103.0,13.4,1505.2,323.3,-0.8,1.8,2471.494,13.29,0.033,78.0
2023-08-28T06:28:03,42.805,6.029,0.035,-0.004,-0.021,103.0,103.0,102.0,13.3,1505.2,325.3,-0.8,1.8,2471.449,13.29,0.035,96.5
2023-08-28T06:31:03,42.805,6.029,0.035,0.007,-0.009,104.0,103.0,101.0,13.3,1505.2,339.2,-0.8,1.8,2471.497,13.29,0.035,78.7
2023-08-28T06:34:03,42.805,6.029,0.031,0.018,0.016,104.0,103.0,102.0,13.4,1505.2,324.8,-0.7,1.8,2471.459,13.29,0.035,59.9
2023-08-28T06:37:03,42.805,6.029,0.027,0.019,0.0,104.0,103.0,101.0,13.4,1505.2,343.4,-0.8,1.8,2471.471,13.29,0.033,54.9
2023-08-28T06:40:03,42.805,6.029,0.016,0.005,-0.002,103.0,103.0,101.0,13.4,1505.2,333.0,-0.8,1.9,2471.454,13.29,0.016,72.6
2023-08-28T06:43:03,42.805,6.029,0.043,0.02,0.015,103.0,103.0,101.0,13.4,1505.2,330.3,-0.8,1.8,2471.496,13.29,0.047,65.1
2023-08-28T06:46:03,42.805,6.029,0.004,-0.001,-0.022,104.0,103.0,101.0,13.4,1505.2,328.0,-0.8,1.8,2471.488,13.29,0.004,104.0
2023-08-28T06:49:03,42.805,6.029,0.046,0.015,0.001,103.0,102.0,102.0,13.4,1505.2,329.7,-0.8,1.8,2471.455,13.29,0.048,71.9
2023-08-28T06:52:03,42.805,6.029,0.033,-0.024,-0.018,103.0,103.0,101.0,13.4,1505.2,351.5,-0.8,1.8,2471.484,13.29,0.04,126.0
2023-08-28T06:55:03,42.805,6.029,0.034,0.002,-0.027,102.0,103.0,102.0,13.3,1505.2,341.5,-0.7,1.8,2471.483,13.29,0.034,86.6
2023-08-28T06:58:03,42.805,6.029,0.022,0.003,0.006,102.0,103.0,101.0,13.4,1505.2,345.9,-0.8,1.8,2471.447,13.29,0.022,82.2
2023-08-28T07:04:03,42.805,6.029,0.022,0.008,-0.002,102.0,102.0,102.0,13.4,1505.2,347.6,-0.7,1.8,2471.492,13.28,0.023,70.0
2023-08-28T07:07:03,42.805,6.029,0.02,0.006,0.0,102.0,104.0,101.0,13.4,1505.2,334.4,-0.8,1.8,2471.493,13.28,0.02,73.3
2023-08-28T07:10:03,42.805,6.029,0.039,-0.009,0.0,104.0,103.0,101.0,13.4,1505.2,335.1,-0.8,1.8,2471.482,13.29,0.04,103.0
2023-08-28T07:13:03,42.805,6.029,0.03,-0.004,0.018,104.0,102.0,101.0,13.4,1505.2,349.9,-0.8,1.8,2471.478,13.29,0.03,97.6
2023-08-28T07:16:03,42.805,6.029,0.04,-0.004,-0.012,103.0,104.0,102.0,13.4,1505.2,322.9,-0.8,1.8,2471.484,13.29,0.04,95.7
2023-08-28T07:19:03,42.805,6.029,0.018,0.007,0.017,102.0,103.0,102.0,13.3,1505.2,321.6,-0.8,1.8,2471.457,13.29,0.019,68.8
2023-08-28T07:22:03,42.805,6.029,0.029,0.013,-0.001,103.0,105.0,102.0,13.4,1505.2,321.1,-0.8,1.8,2471.471,13.29,0.031,65.9
2023-08-28T07:25:03,42.805,6.029,0.029,-0.005,-0.009,104.0,103.0,101.0,13.4,1505.2,337.2,-0.8,1.8,2471.466,13.29,0.029,99.8
2023-08-28T07:28:03,42.805,6.029,0.022,0.008,0.0,104.0,103.0,102.0,13.3,1505.2,345.2,-0.8,1.8,2471.416,13.29,0.023,70.0
2023-08-28T07:31:03,42.805,6.029,0.036,-0.019,0.021,102.0,104.0,103.0,13.3,1505.2,352.0,-0.7,1.8,2471.409,13.29,0.04,117.8
2023-08-28T07:34:03,42.805,6.029,0.027,0.023,-0.011,104.0,103.0,102.0,13.3,1505.2,336.6,-0.7,1.8,2471.446,13.29,0.035,49.6
2023-08-28T07:37:03,42.805,6.029,0.019,-0.014,-0.036,103.0,103.0,102.0,13.4,1505.2,350.3,-0.8,1.8,2471.424,13.29,0.023,126.4
2023-08-28T07:40:03,42.805,6.029,0.03,0.013,-0.01,102.0,104.0,103.0,13.3,1505.2,325.2,-0.8,1.8,2471.441,13.29,0.032,66.6
2023-08-28T07:43:03,42.805,6.029,0.038,0.003,-0.016,103.0,103.0,103.0,13.4,1505.2,330.0,-0.7,1.8,2471.462,13.29,0.038,85.5
2023-08-28T07:46:03,42.805,6.029,0.02,0.005,-0.014,103.0,104.0,102.0,13.4,1505.2,335.0,-0.8,1.8,2471.404,13.29,0.02,76.0
2023-08-28T07:49:03,42.805,6.029,0.032,-0.012,-0.026,104.0,103.0,102.0,13.4,1505.2,352.0,-0.8,1.8,2471.392,13.29,0.034,110.6
2023-08-28T07:52:03,42.805,6.029,0.042,-0.007,-0.011,103.0,103.0,102.0,13.3,1505.2,327.3,-0.8,1.8,2471.459,13.29,0.042,99.5
2023-08-28T07:55:03,42.805,6.029,0.028,0.003,-0.026,104.0,104.0,102.0,13.4,1505.2,328.4,-0.7,1.8,2471.418,13.29,0.028,83.9
2023-08-28T07:58:03,42.805,6.029,0.04,0.005,-0.033,104.0,103.0,102.0,13.3,1505.2,324.4,-0.8,1.8,2471.427,13.29,0.04,82.9
2023-08-28T08:04:03,42.805,6.029,0.022,-0.019,-0.023,104.0,103.0,101.0,13.4,1505.2,328.8,-0.8,1.8,2471.426,13.28,0.029,130.8
2023-08-28T08:07:03,42.805,6.029,0.026,0.0,-0.011,105.0,102.0,102.0,13.3,1505.2,325.3,-0.8,1.8,2471.424,13.28,0.026,90.0
2023-08-28T08:10:03,42.805,6.029,0.019,0.001,-0.001,103.0,104.0,102.0,13.4,1505.2,328.6,-0.7,1.9,2471.455,13.29,0.019,87.0
2023-08-28T08:13:03,42.805,6.029,0.038,-0.014,-0.047,104.0,104.0,101.0,13.4,1505.2,345.0,-0.8,1.8,2471.451,13.29,0.04,110.2
2023-08-28T08:16:03,42.805,6.029,0.031,-0.005,-0.001,104.0,104.0,101.0,13.4,1505.2,326.5,-0.8,1.8,2471.435,13.29,0.031,99.2
2023-08-28T08:19:03,42.805,6.029,0.023,-0.004,0.008,103.0,103.0,102.0,13.4,1505.2,327.1,-0.8,1.8,2471.415,13.29,0.023,99.9
2023-08-28T08:22:03,42.805,6.029,0.059,-0.003,0.014,104.0,103.0,102.0,13.4,1505.2,332.9,-0.8,1.8,2471.401,13.29,0.059,92.9
2023-08-28T08:25:03,42.805,6.029,0.038,0.001,-0.001,103.0,104.0,102.0,13.4,1505.2,340.6,-0.7,1.8,2471.432,13.29,0.038,88.5
2023-08-28T08:28:03,42.805,6.029,0.033,-0.003,-0.014,103.0,104.0,102.0,13.4,1505.2,326.6,-0.8,1.8,2471.372,13.29,0.033,95.2
2023-08-28T08:31:03,42.805,6.029,0.034,-0.029,0.004,103.0,104.0,103.0,13.4,1505.2,338.2,-0.8,1.8,2471.422,13.29,0.044,130.5
2023-08-28T08:34:03,42.805,6.029,0.043,-0.018,0.002,103.0,104.0,102.0,13.4,1505.2,335.8,-0.8,1.8,2471.355,13.29,0.046,112.7
2023-08-28T08:37:03,42.805,6.029,0.032,-0.021,-0.008,104.0,103.0,101.0,13.4,1505.2,342.6,-0.8,1.8,2471.39,13.29,0.038,123.3
2023-08-28T08:40:03,42.805,6.029,0.036,-0.025,-0.049,103.0,106.0,102.0,13.4,1505.2,348.1,-0.7,1.8,2471.437,13.29,0.043,124.8
2023-08-28T08:43:03,42.805,6.029,0.051,-0.009,-0.028,104.0,103.0,102.0,13.3,1505.2,343.4,-0.7,1.8,2471.406,13.29,0.051,100.0
2023-08-28T08:46:03,42.805,6.029,0.038,-0.02,0.002,103.0,104.0,102.0,13.4,1505.2,334.5,-0.7,1.8,2471.389,13.29,0.042,117.8
2023-08-28T08:49:03,42.805,6.029,0.046,-0.03,-0.048,105.0,102.0,103.0,13.4,1505.2,340.5,-0.8,1.8,2471.383,13.29,0.054,123.1
2023-08-28T08:52:03,42.805,6.029,0.043,-0.019,-0.024,104.0,103.0,102.0,13.4,1505.2,340.8,-0.8,1.8,2471.37,13.29,0.047,113.8
2023-08-28T08:55:03,42.805,6.029,0.048,-0.004,-0.012,103.0,103.0,102.0,13.3,1505.2,334.6,-0.8,1.8,2471.379,13.29,0.048,94.8
2023-08-28T08:58:03,42.805,6.029,0.029,-0.019,-0.003,103.0,103.0,103.0,13.4,1505.2,335.5,-0.7,1.8,2471.458,13.29,0.034,123.2
2023-08-28T09:04:03,42.805,6.029,0.037,-0.009,-0.013,103.0,106.0,102.0,13.4,1505.2,332.5,-0.8,1.8,2471.429,13.28,0.038,103.7
2023-08-28T09:07:03,42.805,6.029,0.022,-0.007,-0.008,105.0,105.0,102.0,13.4,1505.2,334.2,-0.8,1.8,2471.454,13.28,0.023,107.6
2023-08-28T09:10:03,42.805,6.029,0.037,-0.014,-0.003,105.0,107.0,102.0,13.4,1505.2,325.5,-0.8,1.8,2471.387,13.29,0.039,110.7
2023-08-28T09:13:03,42.805,6.029,0.033,-0.014,-0.018,104.0,105.0,103.0,13.4,1505.2,343.0,-0.8,1.9,2471.41,13.29,0.035,113.0
2023-08-28T09:16:03,42.805,6.029,0.039,-0.045,-0.004,103.0,104.0,103.0,13.4,1505.2,350.1,-0.8,1.8,2471.363,13.29,0.059,139.1
2023-08-28T09:19:03,42.805,6.029,0.052,-0.009,-0.002,103.0,104.0,102.0,13.4,1505.2,328.1,-0.8,1.8,2471.402,13.29,0.052,99.8
2023-08-28T09:22:03,42.805,6.029,0.027,0.01,-0.005,103.0,104.0,102.0,13.3,1505.2,342.3,-0.8,1.8,2471.449,13.29,0.028,69.7
2023-08-28T09:25:03,42.805,6.029,0.025,-0.014,-0.038,103.0,104.0,101.0,13.4,1505.2,348.6,-0.8,1.8,2471.402,13.29,0.028,119.3
2023-08-28T09:28:03,42.805,6.029,0.023,-0.027,-0.029,104.0,103.0,102.0,13.3,1505.2,345.4,-0.7,1.8,2471.396,13.29,0.035,139.6
2023-08-28T09:31:03,42.805,6.029,0.035,-0.028,-0.041,104.0,103.0,102.0,13.4,1505.2,331.3,-0.8,1.8,2471.387,13.29,0.044,128.7
2023-08-28T09:34:03,42.805,6.029,0.036,-0.063,-0.028,103.0,103.0,103.0,13.3,1505.2,344.8,-0.8,1.8,2471.395,13.29,0.072,150.3
2023-08-28T09:37:03,42.805,6.029,0.03,-0.028,-0.037,103.0,103.0,102.0,13.4,1505.2,351.8,-0.8,1.8,2471.404,13.29,0.041,133.0
2023-08-28T09:40:03,42.805,6.029,0.06,-0.027,0.0,104.0,103.0,102.0,13.3,1505.2,331.8,-0.7,1.8,2471.357,13.29,0.065,114.2
2023-08-28T09:43:03,42.805,6.029,0.063,-0.019,0.004,103.0,102.0,103.0,13.4,1505.2,325.0,-0.8,1.8,2471.37,13.29,0.065,106.8
2023-08-28T09:46:03,42.805,6.029,0.048,-0.028,-0.009,104.0,103.0,102.0,13.4,1505.2,330.2,-0.8,1.8,2471.377,13.29,0.055,120.3
2023-08-28T09:49:03,42.805,6.029,0.045,-0.027,-0.043,103.0,103.0,103.0,13.3,1505.2,335.2,-0.8,1.8,2471.372,13.29,0.052,121.0
2023-08-28T09:52:03,42.805,6.029,0.032,-0.005,0.0,102.0,104.0,102.0,13.4,1505.2,333.0,-0.8,1.8,2471.379,13.29,0.032,98.9
2023-08-28T09:55:03,42.805,6.029,0.021,-0.022,-0.026,105.0,102.0,102.0,13.4,1505.2,344.8,-0.7,1.8,2471.337,13.29,0.03,136.3
2023-08-28T09:58:03,42.805,6.029,0.021,-0.051,-0.071,105.0,102.0,101.0,13.4,1505.2,332.5,-0.7,1.8,2471.399,13.29,0.055,157.6
2023-08-28T10:04:03,42.805,6.029,0.026,-0.012,-0.014,103.0,104.0,102.0,13.4,1505.2,322.9,-0.7,1.8,2471.407,13.28,0.028,114.8
2023-08-28T10:07:03,42.805,6.029,0.026,-0.004,-0.019,104.0,103.0,102.0,13.3,1505.2,328.3,-0.7,1.8,2471.407,13.28,0.026,98.7
2023-08-28T10:10:03,42.805,6.029,0.028,-0.021,-0.025,103.0,103.0,102.0,13.4,1505.2,322.5,-0.7,1.8,2471.386,13.29,0.035,126.9